Miscellaneous Local Product
Issued by NWS Hastings, NE

Home | Current Version | Previous Version | Text Only | Print | Product List | Glossary On
Versions: 1 2 3 4 5 6 7 8 9 10 11 12 13 14 15 16 17 18 19 20 21 22 23 24 25 26 27 28 29 30 31 32 33 34 35 36 37 38 39 40 41 42 43 44 45 46 47 48 49 50
000
AXUS43 KGID 260202
MISGRI

GID CWA HOURLY WEATHER ROUNDUP
NATIONAL WEATHER SERVICE HASTINGS NE
900 PM CDT MON MAY 25 2015

NOTE: "FAIR" INDICATES FEW OR NO CLOUDS BELOW 12,000 FEET WITH NO
SIGNIFICANT WEATHER AND/OR OBSTRUCTIONS TO VISIBILITY.

...SOUTH CENTRAL NEBRASKA...

CITY           SKY/WX    TMP DP  RH WIND       PRES   REMARKS
GRAND ISLAND   TSTM      63  57  81 S13G23    29.77R
HASTINGS       LGT RAIN  67  60  78 S9        29.76R
KEARNEY        MOCLDY    70  52  52 W7        29.77R
ORD            MOCLDY    64  56  75 CALM      29.75R
YORK           CLOUDY    70  55  60 S9        29.74S
AURORA         CLOUDY    66  60  81 S9        29.75S
LEXINGTON      PTCLDY    64  52  64 W8        29.78R
HOLDREGE       MOCLDY    70  49  46 W9        29.78R
HEBRON         CLOUDY    64  53  67 S13       29.76S

...NEBRASKA PANHANDLE...

CITY           SKY/WX    TMP DP  RH WIND       PRES   REMARKS
CHADRON        MOCLDY    56  52  86 NW5       29.88S
ALLIANCE       PTCLDY    56  52  86 W6        29.86S
SCOTTSBLUFF    CLOUDY    54  52  93 NW6       29.89S
SIDNEY         MOCLDY    52  49  89 NW3       29.90S

...WESTERN AND NORTH CENTRAL NEBRASKA...

CITY           SKY/WX    TMP DP  RH WIND       PRES   REMARKS
VALENTINE      CLOUDY    58  53  84 N7        29.83S
AINSWORTH      CLOUDY    58  55  89 N9        29.82S
ONEILL         PTCLDY    64  58  80 N6        29.77F
BROKEN BOW     MOCLDY    65  55  70 N8        29.78R
IMPERIAL       PTCLDY    57  50  77 NW12      29.85R
NORTH PLATTE   PTCLDY    60  52  74 N8        29.81R
MCCOOK         PTCLDY    62  49  62 W8        29.81R

...EASTERN NEBRASKA...

CITY           SKY/WX    TMP DP  RH WIND       PRES   REMARKS
NORFOLK        PTCLDY    68  56  65 S5        29.73R
SO SIOUX CITY  PTCLDY    74  56  53 S3        29.72F
TEKAMAH        CLOUDY    69  61  75 S25G33    29.74R
COLUMBUS       MOCLDY   N/A N/A N/A MISG        N/A
ALBION         MOCLDY    69  55  60 S5        29.73F
OMAHA EPPLEY   CLOUDY    68  59  73 S29G39    29.75F
OFFUTT AFB     MOCLDY    66  61  82 SE20G26   29.79S
MILLARD        CLOUDY    69  61  76 SE18G30   29.75F
LINCOLN        CLOUDY    68  54  60 S6        29.77R
NEBRASKA CITY  CLOUDY    61  61  99 E7        29.82F
BEATRICE       CLOUDY    64  56  76 CALM      29.77S
FALLS CITY     RAIN      61  59  93 SE8       29.84R

...NORTHERN KANSAS...

CITY           SKY/WX    TMP DP  RH WIND       PRES   REMARKS
GOODLAND       CLEAR     58  47  66 N15       29.86R
HILL CITY      CLOUDY    68  52  56 NW7       29.80R
NORTON         CLEAR     64  46  52 NW7       29.80R
PHILLIPSBURG   CLEAR     70  54  56 W6        29.78S
SMITH CENTER   CLEAR     64  57  77 SE10      29.78F
HAYS           CLOUDY    68  57  68 S8        29.79S
RUSSELL        CLOUDY    64  60  87 S8        29.76F
CONCORDIA      CLOUDY    62  56  80 SW10      29.75F
SALINA         CLOUDY    63  55  75 S9        29.78F
TOPEKA         CLOUDY    70  56  61 N9        29.82R



USA.gov is the U.S. government's official web portal to all federal, state and local government web resources and services.